Temperature
10 10 10 9 9 9 9 9 9 9 9 9 8 8 8 8 7 7 7 7 6 6 6 6 6 5 5 5 4 4 4 3 3 3 3 3 3 2 2 2 2 2 2
9 9 9 9 9 9 9 9 9 8 8 8 8 8 7 7 7 7 6 6 6 6 6 5 5 5 5 4 4 4 3 3 2 2 3 2 2 2 2 2 1 1 1
8 8 8 8 8 8 8 8 8 8 8 7 7 7 7 6 6 6 6 5 5 5 5 5 5 4 4 4 3 3 3 2 2 2 2 2 1 1 1 1 1 1 1
8 8 8 8 8 8 8 8 7 7 7 7 6 6 6 6 5 5 5 5 5 5 4 4 4 4 3 3 2 2 2 2 1 1 1 1 1 1 0 0 1 1 0
7 7 7 7 7 7 7 7 7 6 6 6 6 5 5 5 5 5 4 4 4 4 4 4 3 3 2 2 2 2 1 1 1 1 0 0 -0 -0 -0 -0 -1 -0 -0
7 7 7 6 6 6 6 6 6 6 5 5 5 5 4 4 4 4 4 4 3 3 3 3 2 2 2 2 1 1 1 0 0 0 -0 -0 -1 -1 -1 -1 -2 -2 -1
6 6 6 6 6 5 5 5 5 5 5 4 4 4 4 4 4 3 3 3 3 2 2 2 2 2 1 1 1 1 0 -0 -0 -1 -1 -1 -1 -2 -2 -2 -2 -2 -2
5 5 5 5 5 5 4 4 4 4 4 4 4 4 3 3 3 3 2 2 2 2 1 1 1 1 1 0 -0 -0 -0 -1 -1 -1 -2 -2 -2 -2 -2 -3 -3 -3 -2
4 4 4 4 4 4 4 4 3 3 3 3 3 3 3 2 2 2 1 1 1 1 1 0 0 0 -0 -1 -1 -1 -1 -1 -1 -2 -2 -2 -2 -3 -3 -3 -3 -3 -3
3 4 3 3 3 3 3 3 3 3 3 2 2 2 2 2 1 1 1 0 0 -0 -0 -1 -1 -1 -1 -1 -1 -2 -2 -2 -2 -2 -2 -2 -2 -3 -3 -3 -4 -4 -4
3 3 3 2 2 2 2 2 2 2 2 2 2 1 1 1 1 0 0 -0 -1 -1 -1 -1 -1 -2 -2 -2 -2 -2 -2 -3 -3 -3 -3 -3 -3 -3 -3 -3 -4 -4 -5
2 2 2 2 2 2 2 1 1 1 1 1 1 1 0 0 0 -0 -1 -1 -1 -1 -2 -2 -2 -2 -2 -2 -3 -3 -3 -3 -3 -3 -3 -3 -3 -4 -4 -4 -4 -4 -5
1 1 1 1 1 1 1 1 1 0 0 0 -0 -0 -0 -0 -1 -1 -1 -1 -2 -2 -2 -2 -2 -3 -3 -3 -3 -3 -3 -3 -4 -4 -4 -4 -4 -4 -4 -4 -4 -4 -4
0 0 0 0 0 0 -0 -0 -0 -0 -1 -1 -1 -1 -1 -1 -1 -2 -2 -2 -2 -2 -2 -3 -3 -3 -3 -3 -4 -4 -4 -4 -4 -4 -4 -4 -4 -5 -5 -5 -5 -5 -5
-0 -1 -1 -1 -1 -1 -1 -1 -1 -1 -1 -2 -2 -2 -2 -2 -2 -2 -3 -3 -3 -3 -3 -3 -3 -4 -4 -4 -4 -4 -4 -4 -4 -5 -5 -5 -5 -5 -5 -5 -5 -5 -6
-1 -1 -1 -1 -1 -1 -1 -1 -2 -2 -2 -2 -3 -3 -3 -3 -3 -3 -3 -3 -3 -3 -4 -4 -4 -4 -4 -4 -4 -4 -4 -5 -5 -5 -5 -5 -5 -5 -6 -6 -6 -6 -6
-2 -2 -2 -2 -2 -2 -2 -2 -2 -2 -3 -3 -3 -3 -3 -3 -3 -3 -4 -4 -4 -4 -4 -4 -4 -5 -5 -5 -5 -5 -5 -5 -5 -6 -6 -6 -6 -6 -6 -6 -6 -6 -6
-3 -3 -3 -3 -3 -3 -3 -3 -3 -3 -3 -3 -3 -4 -4 -4 -4 -4 -4 -4 -4 -4 -5 -5 -5 -5 -5 -5 -5 -5 -5 -5 -6 -6 -6 -6 -6 -6 -7 -7 -7 -7 -7
-3 -3 -3 -3 -3 -4 -4 -4 -4 -4 -4 -4 -4 -4 -4 -4 -4 -4 -4 -4 -5 -5 -5 -5 -5 -5 -5 -5 -5 -6 -6 -6 -6 -6 -6 -6 -7 -7 -7 -7 -7 -7 -7
-4 -4 -4 -4 -4 -4 -4 -5 -5 -5 -5 -5 -5 -4 -4 -4 -4 -4 -4 -5 -5 -5 -5 -5 -5 -5 -5 -6 -6 -6 -6 -6 -6 -6 -7 -7 -7 -7 -7 -7 -8 -8 -8
-5 -5 -5 -5 -5 -5 -5 -5 -5 -5 -5 -5 -5 -5 -5 -5 -5 -5 -5 -5 -5 -5 -5 -5 -5 -5 -6 -6 -6 -6 -6 -7 -7 -7 -7 -7 -7 -8 -8 -8 -8 -8 -8
-5 -5 -5 -5 -5 -5 -5 -6 -6 -6 -6 -5 -5 -5 -5 -5 -5 -5 -5 -5 -5 -6 -6 -6 -6 -6 -6 -6 -6 -7 -7 -7 -7 -7 -7 -7 -8 -8 -8 -8 -8 -8 -8
-6 -6 -6 -6 -6 -6 -6 -6 -6 -6 -6 -6 -6 -6 -6 -6 -5 -5 -5 -6 -6 -6 -6 -6 -6 -6 -6 -6 -7 -7 -7 -7 -7 -8 -8 -8 -8 -8 -8 -8 -8 -8 -8
-6 -6 -6 -6 -6 -6 -6 -6 -6 -6 -6 -6 -6 -6 -6 -6 -6 -6 -6 -6 -6 -6 -6 -6 -6 -6 -6 -7 -7 -7 -7 -7 -8 -8 -8 -8 -8 -8 -8 -8 -8 -8 -8
-7 -7 -7 -7 -7 -7 -7 -7 -7 -7 -6 -6 -6 -6 -6 -6 -6 -6 -6 -6 -6 -6 -6 -6 -6 -7 -7 -7 -7 -7 -7 -7 -8 -8 -8 -8 -8 -8 -8 -8 -8 -8 -8
-7 -7 -7 -7 -7 -7 -7 -7 -7 -7 -7 -7 -7 -7 -7 -7 -7 -7 -7 -6 -6 -7 -7 -7 -7 -7 -7 -7 -7 -7 -7 -7 -7 -8 -8 -8 -8 -8 -8 -8 -8 -8 -8
Wind_Speed
3 3 4 3 3 3 3 4 4 3 3 4 4 4 3 3 3 3 3 3 3 2 1 2 2 2 2 2 2 2 3 3 7 7 5 4 5 6 8 9 10 11 12
3 3 3 3 3 3 3 3 3 3 3 4 4 4 3 3 3 3 3 2 3 2 2 2 2 1 2 2 2 3 3 4 5 8 7 5 5 6 7 8 9 10 11
3 4 3 3 3 3 3 3 3 3 3 3 4 3 3 2 2 2 3 2 2 2 2 2 2 2 3 3 3 3 3 4 4 6 7 6 5 5 7 8 8 8 10
3 3 3 2 2 2 2 3 3 3 4 3 3 3 3 3 3 3 3 2 2 1 1 2 2 3 3 3 3 4 3 4 4 5 6 6 6 5 5 7 8 6 7
3 3 2 2 2 2 2 3 3 3 3 3 3 2 2 2 3 3 3 2 2 1 0 1 2 3 4 4 4 3 3 4 4 5 6 6 6 6 6 6 8 9 8
3 2 2 2 2 3 3 3 3 3 3 3 3 3 2 1 2 2 2 2 2 2 1 1 2 2 4 5 6 7 6 5 5 5 6 7 7 7 7 7 7 8 8
3 2 2 2 2 2 3 3 3 3 3 2 2 2 2 1 2 2 1 1 2 2 2 2 2 3 5 3 5 7 7 8 8 7 7 7 8 7 7 8 8 8 9
3 2 2 2 2 2 3 2 2 2 2 2 1 1 1 1 2 2 1 1 1 1 2 2 3 3 4 4 4 4 4 5 6 5 5 7 7 7 7 7 8 8 9
2 2 1 2 2 2 2 2 1 2 1 1 1 1 1 2 2 2 1 1 1 1 2 2 3 3 6 6 4 5 6 6 7 8 9 9 11 12 9 5 6 7 8
1 1 1 1 2 2 2 1 1 1 1 1 0 1 1 2 2 2 1 1 1 1 2 3 4 5 6 7 5 5 6 6 5 6 7 8 7 8 9 5 4 6 6
1 1 2 1 1 1 1 1 1 1 1 1 0 1 1 2 2 3 2 1 2 2 2 3 3 6 8 8 7 5 7 7 5 5 5 5 5 4 5 5 4 5 6
2 2 2 1 1 1 1 1 1 2 1 0 0 1 1 1 2 2 3 3 3 2 3 3 4 7 8 9 7 7 9 7 3 4 4 5 5 5 5 6 7 7 8
2 2 1 1 1 1 1 1 1 1 1 1 1 1 2 1 2 3 4 3 3 3 3 4 6 7 7 6 6 8 7 3 3 4 5 5 5 5 6 6 6 7 8
2 1 1 1 1 1 1 0 1 1 1 2 2 2 2 2 2 2 2 2 2 3 2 4 5 6 5 5 6 5 3 3 4 4 5 5 5 5 5 5 5 5 5
1 1 1 1 1 1 1 0 1 2 3 3 3 2 2 3 4 5 4 3 2 2 3 2 2 3 3 3 3 4 3 3 4 4 4 4 5 5 5 4 4 5 5
1 1 0 1 1 1 1 2 3 2 3 3 3 3 3 4 5 5 5 5 5 4 3 2 2 3 3 4 4 4 4 4 4 4 4 4 5 5 5 5 5 5 6
0 0 0 0 0 0 0 0 2 4 4 4 3 4 4 4 4 4 4 4 4 3 2 2 2 3 4 4 4 4 5 5 4 4 4 4 4 5 5 5 5 5 6
1 0 0 0 1 0 1 1 1 1 2 3 4 5 5 4 4 4 4 4 2 2 2 2 3 3 4 4 4 5 5 4 4 4 4 4 4 5 5 5 5 5 6
1 0 0 0 0 0 0 0 1 1 2 2 3 4 5 5 4 4 4 2 2 2 3 3 3 4 4 4 4 5 5 5 5 4 4 4 4 4 5 5 5 8 7
1 1 1 1 1 1 1 1 1 1 2 2 3 3 3 3 2 3 2 2 2 3 3 3 4 4 4 4 4 4 5 5 5 4 4 4 4 4 5 5 5 5 6
1 1 2 1 1 1 1 1 1 1 2 2 3 4 5 3 2 3 3 3 3 3 3 4 4 4 4 4 4 5 5 5 4 4 4 4 4 4 4 4 5 5 5
1 1 1 1 1 1 1 1 1 2 2 3 3 4 6 3 3 3 3 3 3 3 3 3 4 4 4 4 4 4 5 5 4 4 4 4 4 4 4 4 5 5 5
1 1 1 1 1 2 2 1 2 2 2 3 3 3 3 3 3 3 4 4 4 4 4 4 4 4 5 5 5 5 5 5 4 4 4 4 4 4 4 5 5 6 6
1 1 1 1 1 1 1 2 2 2 2 3 3 3 3 4 4 4 4 4 4 4 4 4 5 6 7 6 6 6 6 6 6 5 5 4 5 4 4 4 5 6 6
1 1 1 1 1 1 2 2 2 3 3 3 3 3 3 4 4 4 4 4 4 4 5 5 5 5 6 7 7 7 7 8 7 6 5 4 4 4 4 4 4 5 5
2 1 1 1 1 2 2 2 3 3 3 3 3 3 4 4 4 4 4 4 4 4 4 5 5 6 7 7 7 7 8 8 7 8 6 4 3 3 3 3 4 4 4
Wind_Direction
143 145 147 155 160 160 164 173 173 161 154 161 161 157 160 165 165 159 172 175 168 183 199 197 226 236 249 261 253 253 253 248 269 285 286 290 289 295 309 310 307 307 309
136 133 141 143 142 148 159 169 161 158 154 155 152 153 158 164 169 164 174 180 178 190 211 212 242 255 258 267 263 262 264 259 261 281 292 292 285 290 298 301 310 311 309
123 127 128 130 136 147 154 150 148 147 144 139 145 153 154 157 163 166 170 180 183 194 211 221 247 244 267 276 273 270 271 276 264 272 286 289 288 294 303 301 300 300 309
120 126 128 136 143 149 146 138 142 145 145 146 148 149 150 153 162 164 159 172 168 187 216 232 251 251 255 262 273 269 273 282 278 279 285 290 290 293 298 303 308 306 306
115 120 130 127 118 117 121 123 125 130 137 139 132 129 138 156 170 161 167 174 172 184 242 282 282 283 284 285 283 277 279 282 282 285 287 293 296 306 305 301 303 307 302
107 113 111 113 114 116 121 122 122 122 124 124 135 148 160 188 183 185 177 176 181 182 217 288 292 294 300 308 304 297 290 284 280 282 286 290 294 296 298 299 301 308 304
93 100 103 111 115 117 116 116 122 131 130 134 148 155 171 201 209 201 205 181 174 192 220 249 285 292 309 298 298 303 300 295 289 282 280 282 285 286 290 292 291 290 287
82 82 91 109 112 109 112 121 128 130 142 150 159 167 177 219 231 222 213 141 168 216 236 244 258 275 284 288 291 298 297 299 294 288 270 276 279 280 275 280 284 288 282
73 70 78 116 122 122 128 139 128 134 132 156 171 169 188 244 247 239 232 152 195 262 269 268 269 269 280 295 300 296 301 302 307 304 299 298 298 299 298 298 297 300 296
64 105 105 117 130 151 160 153 129 140 160 163 159 178 203 238 247 248 234 180 215 270 289 279 282 288 292 301 299 293 298 300 305 308 311 309 308 304 304 294 284 290 294
18 72 77 90 125 156 146 145 140 131 119 130 155 286 245 235 250 260 255 232 219 254 277 285 286 297 302 304 305 296 291 301 303 303 304 305 306 302 300 295 279 271 278
70 78 75 69 78 94 117 114 128 139 135 171 201 323 306 266 261 264 264 272 280 269 271 278 287 299 304 308 309 305 308 315 310 304 303 302 304 303 301 298 290 278 267
71 72 70 64 61 94 128 132 122 145 165 225 225 261 292 294 284 296 286 279 287 293 277 288 300 305 310 311 309 310 314 313 301 299 297 295 296 295 300 301 298 294 287
74 67 70 75 46 42 53 118 171 204 211 232 243 255 279 292 281 278 275 271 282 296 301 303 310 312 313 311 312 314 311 294 294 290 294 294 297 300 299 299 304 312 307
58 77 76 63 75 40 19 304 270 239 225 232 238 242 247 264 269 281 290 284 281 285 319 326 328 321 315 312 311 309 307 306 303 296 293 298 303 305 304 304 301 305 299
85 62 79 74 52 41 18 358 347 327 313 305 286 276 272 273 288 293 297 301 305 309 328 310 303 301 298 299 303 305 303 299 298 297 295 293 298 302 305 307 305 302 300
177 203 145 84 56 348 339 8 348 355 359 351 333 316 309 295 297 304 307 315 314 319 322 292 290 291 294 296 295 294 293 294 295 292 292 293 295 300 303 305 308 308 307
355 303 328 196 198 220 254 275 297 323 335 341 342 339 335 331 331 331 330 340 331 336 313 292 290 291 292 292 291 293 296 298 295 292 293 293 293 299 303 305 308 308 310
359 334 262 225 194 138 328 346 339 323 317 322 332 334 339 341 345 341 344 340 303 299 296 291 289 290 290 289 290 291 293 293 294 295 294 294 295 297 300 302 306 308 312
5 10 13 18 15 17 5 332 307 306 310 310 307 310 320 329 329 328 328 311 294 289 289 287 289 286 287 287 289 292 295 295 297 296 296 297 298 297 300 304 306 308 309
3 1 7 11 356 322 299 283 281 286 291 295 292 294 304 305 294 294 297 294 287 284 285 287 287 287 285 286 288 290 293 294 295 296 297 298 300 302 301 301 303 304 306
359 357 350 330 327 312 300 285 283 284 287 292 301 306 311 315 302 297 296 294 292 286 284 282 283 283 279 278 279 282 287 291 293 295 295 295 295 296 299 302 304 306 307
9 1 353 340 323 309 324 315 300 292 291 292 298 305 309 307 304 301 299 301 300 296 290 281 282 284 284 282 275 272 276 280 281 281 287 292 294 296 297 299 303 306 307
2 356 338 330 329 321 311 308 303 298 295 295 296 298 301 302 302 302 303 303 304 299 291 285 280 281 287 292 288 283 280 281 280 275 273 280 288 294 297 300 301 301 303
359 341 322 311 309 307 306 306 305 304 301 297 296 301 306 304 303 305 307 307 306 303 301 297 293 292 293 294 294 292 294 299 301 296 286 285 283 285 291 296 301 307 309
351 335 322 316 309 302 300 301 303 303 300 299 301 303 303 303 305 308 310 311 312 310 309 306 304 303 301 300 301 304 309 312 312 309 302 291 285 290 295 295 299 304 310
Height
1467 1470 1472 1474 1477 1478 1480 1481 1483 1485 1486 1487 1488 1489 1490 1491 1491 1492 1492 1493 1492 1492 1492 1492 1492 1491 1491 1491 1490 1489 1487 1486 1482 1477 1476 1474 1472 1470 1468 1465 1463 1459 1456
1465 1467 1469 1471 1473 1475 1476 1478 1479 1481 1482 1483 1484 1485 1486 1487 1487 1487 1488 1488 1488 1488 1488 1488 1487 1487 1486 1485 1485 1483 1482 1480 1478 1473 1470 1469 1467 1465 1462 1459 1457 1454 1451
1462 1464 1466 1468 1470 1471 1473 1475 1476 1477 1478 1479 1480 1481 1482 1482 1483 1483 1484 1484 1484 1484 1483 1483 1482 1482 1481 1480 1479 1478 1476 1475 1473 1470 1465 1464 1461 1459 1456 1454 1451 1448 1445
1460 1462 1464 1465 1467 1468 1470 1471 1472 1474 1475 1476 1476 1477 1478 1478 1479 1479 1480 1480 1480 1479 1479 1479 1478 1477 1476 1475 1474 1473 1471 1470 1468 1465 1462 1459 1456 1454 1451 1448 1444 1442 1439
1458 1459 1461 1463 1464 1465 1467 1468 1469 1470 1471 1472 1473 1474 1474 1475 1475 1475 1476 1476 1475 1475 1474 1474 1473 1472 1471 1471 1469 1468 1466 1464 1462 1460 1457 1454 1451 1449 1446 1443 1439 1435 1432
1456 1457 1459 1460 1461 1462 1464 1465 1466 1467 1468 1469 1469 1470 1471 1472 1472 1472 1472 1471 1471 1470 1469 1468 1468 1468 1467 1465 1464 1463 1462 1460 1457 1455 1452 1449 1446 1444 1442 1439 1435 1430 1425
1454 1455 1456 1457 1458 1460 1461 1462 1463 1464 1465 1465 1466 1467 1467 1468 1468 1468 1468 1467 1466 1465 1465 1464 1463 1463 1462 1460 1458 1457 1456 1454 1453 1451 1447 1444 1442 1440 1437 1434 1431 1427 1423
1453 1453 1454 1455 1456 1457 1458 1459 1460 1461 1461 1462 1463 1463 1464 1464 1464 1464 1464 1463 1462 1461 1461 1460 1459 1458 1457 1456 1454 1452 1450 1449 1447 1445 1443 1440 1437 1435 1432 1429 1426 1421 1418
1451 1452 1453 1453 1454 1455 1456 1456 1457 1458 1458 1459 1459 1460 1460 1460 1460 1460 1460 1459 1457 1457 1456 1456 1455 1454 1453 1452 1450 1448 1445 1443 1442 1440 1438 1435 1433 1430 1428 1424 1420 1417 1412
1449 1450 1451 1452 1452 1453 1453 1454 1454 1455 1455 1455 1456 1456 1456 1456 1456 1456 1456 1455 1453 1452 1452 1451 1451 1450 1449 1448 1446 1443 1440 1438 1436 1434 1432 1430 1427 1425 1422 1420 1416 1413 1408
1448 1448 1449 1450 1450 1451 1451 1451 1452 1452 1452 1452 1452 1452 1452 1452 1452 1452 1452 1451 1450 1449 1448 1447 1446 1446 1444 1443 1441 1439 1437 1435 1432 1429 1427 1424 1422 1419 1417 1415 1412 1409 1406
1446 1446 1447 1447 1448 1448 1448 1449 1449 1449 1449 1449 1449 1448 1448 1448 1449 1448 1448 1448 1447 1446 1444 1443 1442 1441 1440 1438 1436 1434 1432 1430 1427 1425 1422 1419 1417 1414 1412 1410 1408 1405 1402
1444 1444 1445 1445 1445 1446 1446 1446 1446 1446 1446 1445 1445 1444 1444 1444 1444 1445 1444 1444 1443 1442 1441 1440 1439 1437 1435 1433 1431 1429 1428 1425 1423 1420 1418 1415 1413 1410 1408 1405 1403 1400 1397
1442 1443 1443 1443 1443 1443 1443 1443 1443 1442 1442 1442 1441 1441 1441 1440 1441 1440 1440 1440 1439 1438 1437 1435 1434 1433 1431 1429 1427 1425 1423 1421 1419 1416 1414 1411 1409 1406 1404 1401 1398 1394 1391
1441 1441 1441 1441 1441 1441 1441 1441 1440 1440 1440 1439 1439 1439 1438 1437 1437 1438 1437 1436 1435 1434 1433 1431 1430 1428 1426 1425 1423 1421 1419 1417 1415 1413 1410 1407 1405 1402 1400 1397 1394 1391 1387
1439 1439 1439 1439 1438 1438 1438 1438 1438 1438 1437 1437 1437 1437 1436 1436 1435 1434 1434 1433 1432 1431 1429 1427 1426 1424 1423 1421 1419 1417 1415 1413 1411 1409 1406 1404 1401 1398 1396 1393 1391 1387 1384
1437 1437 1437 1437 1436 1436 1435 1435 1434 1435 1435 1434 1434 1433 1433 1433 1432 1431 1430 1429 1428 1427 1426 1424 1422 1421 1419 1418 1416 1414 1412 1410 1407 1405 1403 1400 1398 1395 1392 1390 1387 1384 1381
1435 1435 1435 1435 1434 1434 1434 1433 1432 1431 1431 1431 1431 1431 1430 1430 1429 1428 1427 1426 1424 1423 1422 1421 1419 1418 1416 1414 1412 1410 1408 1406 1404 1402 1399 1397 1395 1392 1389 1387 1384 1381 1378
1433 1433 1433 1433 1432 1432 1432 1431 1431 1430 1429 1429 1428 1428 1428 1427 1426 1425 1424 1423 1421 1420 1418 1417 1416 1414 1413 1411 1409 1407 1405 1403 1401 1399 1396 1394 1391 1389 1386 1384 1381 1379 1376
1431 1431 1431 1431 1430 1430 1430 1430 1429 1429 1428 1427 1426 1426 1425 1424 1422 1422 1421 1420 1418 1417 1415 1414 1413 1411 1409 1408 1406 1404 1402 1400 1397 1395 1393 1391 1388 1386 1384 1381 1379 1376 1373
1430 1430 1429 1429 1429 1429 1428 1428 1427 1427 1426 1425 1425 1424 1423 1422 1420 1419 1418 1417 1415 1414 1412 1411 1409 1408 1406 1404 1402 1400 1398 1396 1394 1392 1390 1388 1386 1383 1381 1379 1376 1374 1371
1429 1428 1428 1428 1427 1427 1426 1426 1426 1425 1424 1423 1422 1422 1421 1420 1418 1417 1415 1414 1412 1411 1409 1408 1406 1405 1403 1401 1399 1397 1395 1393 1391 1389 1387 1385 1383 1381 1379 1376 1374 1372 1369
1427 1427 1426 1426 1426 1425 1425 1424 1423 1423 1422 1421 1420 1419 1418 1417 1415 1414 1412 1411 1409 1408 1406 1404 1403 1401 1400 1398 1396 1394 1392 1390 1388 1386 1384 1382 1380 1378 1376 1374 1372 1370 1368
1426 1426 1425 1424 1424 1423 1423 1422 1421 1420 1419 1419 1418 1417 1415 1414 1413 1411 1410 1408 1406 1404 1403 1401 1400 1398 1397 1395 1393 1391 1390 1388 1386 1384 1382 1380 1378 1376 1374 1372 1371 1369 1366
1425 1424 1424 1423 1422 1422 1421 1420 1419 1418 1417 1416 1415 1414 1413 1411 1410 1408 1407 1405 1403 1402 1400 1398 1397 1395 1393 1392 1390 1388 1387 1385 1383 1381 1379 1377 1376 1374 1372 1371 1369 1367 1365
1424 1423 1422 1422 1421 1420 1419 1418 1417 1416 1415 1414 1413 1411 1410 1409 1407 1406 1404 1402 1401 1399 1397 1396 1394 1393 1391 1389 1387 1386 1384 1382 1381 1379 1377 1376 1374 1372 1371 1369 1367 1366 1364